| time (UTC) | temp F | wind direction | speed MPH | gust MPH | rain 1hr in | rain 24hr in | rain mn in | humidity % | barometer mb |
| 20260510063049 | 65 | 119 | 0.0 | 0.0 | 0.00 | 0.20 | 0.00 | 100 | 1013.2 |
| 20260510062042 | 66 | 119 | 0.0 | 0.0 | 0.00 | 0.20 | 0.00 | 100 | 1013.2 |
| 20260510061055 | 66 | 119 | 0.0 | 0.0 | 0.00 | 0.20 | 0.00 | 100 | 1013.2 |
| 20260510055041 | 66 | 119 | 0.0 | 0.0 | 0.00 | 0.20 | 0.00 | 100 | 1013.6 |
| 20260510054054 | 66 | 119 | 0.0 | 0.0 | 0.00 | 0.20 | 0.00 | 100 | 1013.6 |
| 20260510053050 | 66 | 119 | 0.0 | 0.0 | 0.00 | 0.20 | 0.00 | 100 | 1013.5 |
| 20260510052042 | 66 | 119 | 0.0 | 0.0 | 0.00 | 0.20 | 0.00 | 100 | 1013.7 |
| 20260510051036 | 66 | 119 | 0.0 | 0.0 | 0.00 | 0.20 | 0.00 | 100 | 1013.5 |
| 20260510050120 | 66 | 119 | 0.0 | 0.0 | 0.00 | 0.20 | 0.00 | 100 | 1013.6 |
| 20260510045042 | 66 | 119 | 0.0 | 0.0 | 0.00 | 0.20 | 0.00 | 100 | 1013.7 |
| 20260510044036 | 66 | 119 | 0.0 | 0.0 | 0.00 | 0.20 | 0.00 | 100 | 1013.6 |
| 20260510043049 | 66 | 119 | 0.0 | 0.0 | 0.00 | 0.20 | 0.00 | 100 | 1013.8 |
| 20260510042046 | 66 | 119 | 0.0 | 0.0 | 0.00 | 0.20 | 0.00 | 100 | 1013.8 |
| 20260510041059 | 66 | 119 | 0.0 | 0.0 | 0.00 | 0.20 | 0.00 | 100 | 1013.8 |
| 20260510040120 | 66 | 119 | 0.0 | 0.0 | 0.00 | 0.20 | 0.00 | 100 | 1014.3 |
| 20260510035044 | 66 | 119 | 0.0 | 0.0 | 0.00 | 0.20 | 0.20 | 100 | 1014.9 |
| 20260510034055 | 66 | 119 | 0.0 | 0.0 | 0.00 | 0.20 | 0.20 | 100 | 1014.9 |
| 20260510033051 | 66 | 119 | 0.0 | 0.0 | 0.00 | 0.20 | 0.20 | 100 | 1014.7 |
| 20260510032045 | 66 | 119 | 0.0 | 0.0 | 0.00 | 0.20 | 0.20 | 100 | 1013.8 |
| 20260510031039 | 66 | 119 | 0.0 | 0.0 | 0.00 | 0.20 | 0.20 | 100 | 1014.3 |
| 20260510030121 | 66 | 119 | 0.0 | 0.0 | 0.00 | 0.20 | 0.20 | 100 | 1014.7 |
| 20260510025049 | 66 | 119 | 0.0 | 0.0 | 0.00 | 0.20 | 0.20 | 100 | 1014.5 |
| 20260510024042 | 66 | 119 | 0.0 | 0.0 | 0.00 | 0.20 | 0.20 | 100 | 1014.6 |
| 20260510023056 | 66 | 119 | 0.0 | 0.0 | 0.00 | 0.20 | 0.20 | 100 | 1014.3 |
| 20260510022050 | 66 | 119 | 0.0 | 0.0 | 0.00 | 0.20 | 0.20 | 100 | 1014.2 |
| 20260510021105 | 66 | 119 | 0.0 | 0.0 | 0.00 | 0.20 | 0.20 | 100 | 1014.1 |
| 20260510020107 | 66 | 119 | 0.0 | 0.0 | 0.00 | 0.20 | 0.20 | 100 | 1014.0 |
| 20260510015110 | 66 | 119 | 0.0 | 0.0 | 0.00 | 0.20 | 0.20 | 100 | 1014.2 |
| 20260510014043 | 66 | 119 | 0.0 | 0.0 | 0.01 | 0.20 | 0.20 | 100 | 1014.1 |
| 20260510013037 | 66 | 119 | 0.0 | 0.0 | 0.02 | 0.20 | 0.20 | 100 | 1014.1 |
| 20260510012048 | 66 | 119 | 0.0 | 0.0 | 0.04 | 0.20 | 0.20 | 100 | 1014.1 |
| 20260510011046 | 66 | 119 | 0.0 | 0.0 | 0.04 | 0.20 | 0.20 | 100 | 1013.8 |
| 20260510010110 | 66 | 119 | 0.0 | 0.0 | 0.05 | 0.20 | 0.20 | 100 | 1013.4 |
| 20260510005052 | 66 | 119 | 0.0 | 0.0 | 0.05 | 0.20 | 0.20 | 100 | 1013.1 |
| 20260510004048 | 66 | 119 | 0.0 | 0.0 | 0.05 | 0.19 | 0.19 | 100 | 1012.9 |
| 20260510003041 | 66 | 119 | 0.0 | 0.0 | 0.03 | 0.17 | 0.17 | 100 | 1013.0 |
| 20260510002054 | 66 | 119 | 0.0 | 1.0 | 0.02 | 0.16 | 0.16 | 100 | 1012.9 |
| 20260510001106 | 66 | 119 | 0.0 | 1.0 | 0.02 | 0.16 | 0.16 | 100 | 1013.0 |
| 20260510000128 | 66 | 119 | 0.0 | 2.0 | 0.01 | 0.15 | 0.15 | 100 | 1012.9 |
| 20260509235051 | 66 | 119 | 0.0 | 1.0 | 0.00 | 0.19 | 0.15 | 100 | 1012.6 |
| 20260509234043 | 66 | 119 | 0.0 | 1.0 | 0.00 | 0.19 | 0.14 | 100 | 1012.4 |
| 20260509233042 | 66 | 119 | 0.0 | 1.0 | 0.00 | 0.19 | 0.14 | 100 | 1012.5 |
| 20260509232055 | 66 | 102 | 0.0 | 4.0 | 0.01 | 0.19 | 0.14 | 100 | 1012.4 |
| 20260509231050 | 66 | 102 | 0.0 | 2.0 | 0.01 | 0.19 | 0.14 | 100 | 1012.4 |
| 20260509230113 | 66 | 90 | 0.0 | 1.0 | 0.01 | 0.19 | 0.14 | 100 | 1012.5 |
| 20260509225054 | 66 | 90 | 0.0 | 1.0 | 0.03 | 0.20 | 0.14 | 100 | 1012.4 |
| 20260509224048 | 66 | 89 | 0.0 | 1.0 | 0.05 | 0.20 | 0.14 | 100 | 1012.6 |
| 20260509223041 | 66 | 127 | 0.0 | 0.0 | 0.06 | 0.20 | 0.14 | 100 | 1012.8 |
| 20260509222056 | 66 | 127 | 0.0 | 0.0 | 0.06 | 0.19 | 0.13 | 100 | 1012.9 |
| 20260509221048 | 66 | 127 | 0.0 | 0.0 | 0.07 | 0.19 | 0.13 | 100 | 1013.0 |
| 20260509220132 | 66 | 128 | 0.0 | 0.0 | 0.08 | 0.18 | 0.12 | 100 | 1013.0 |
| 20260509215059 | 66 | 128 | 0.0 | 0.0 | 0.07 | 0.17 | 0.11 | 100 | 1013.3 |
| 20260509214052 | 66 | 128 | 0.0 | 0.0 | 0.06 | 0.15 | 0.09 | 100 | 1013.4 |
| 20260509213046 | 66 | 128 | 0.0 | 0.0 | 0.05 | 0.14 | 0.08 | 100 | 1013.5 |
| 20260509212038 | 67 | 128 | 0.0 | 0.0 | 0.04 | 0.13 | 0.07 | 100 | 1013.6 |
| 20260509211050 | 67 | 128 | 0.0 | 0.0 | 0.03 | 0.12 | 0.06 | 100 | 1013.4 |
| 20260509210115 | 67 | 128 | 0.0 | 0.0 | 0.01 | 0.10 | 0.04 | 100 | 1013.4 |
| 20260509205040 | 67 | 128 | 0.0 | 0.0 | 0.00 | 0.09 | 0.03 | 100 | 1013.5 |
| 20260509204053 | 67 | 128 | 0.0 | 0.0 | 0.00 | 0.09 | 0.03 | 100 | 1013.3 |
| 20260509203046 | 67 | 128 | 0.0 | 0.0 | 0.00 | 0.09 | 0.03 | 100 | 1013.2 |
| 20260509202044 | 67 | 155 | 0.0 | 0.0 | 0.00 | 0.09 | 0.03 | 100 | 1013.2 |
| 20260509201037 | 67 | 154 | 0.0 | 0.0 | 0.00 | 0.09 | 0.03 | 100 | 1013.3 |
| 20260509200120 | 67 | 154 | 0.0 | 0.0 | 0.00 | 0.09 | 0.03 | 100 | 1013.7 |
| 20260509195100 | 67 | 154 | 0.0 | 0.0 | 0.00 | 0.09 | 0.03 | 100 | 1013.8 |
| 20260509194053 | 67 | 154 | 0.0 | 0.0 | 0.02 | 0.09 | 0.03 | 100 | 1013.7 |
| 20260509193047 | 67 | 154 | 0.0 | 0.0 | 0.02 | 0.09 | 0.03 | 100 | 1013.9 |
| 20260509192101 | 67 | 154 | 0.0 | 0.0 | 0.02 | 0.09 | 0.03 | 100 | 1014.2 |
| 20260509191052 | 67 | 154 | 0.0 | 0.0 | 0.02 | 0.09 | 0.03 | 99 | 1014.4 |
| 20260509190116 | 68 | 154 | 0.0 | 0.0 | 0.02 | 0.09 | 0.03 | 99 | 1014.6 |
| 20260509185039 | 68 | 154 | 0.0 | 0.0 | 0.02 | 0.09 | 0.03 | 98 | 1014.8 |
| 20260509184056 | 68 | 154 | 0.0 | 0.0 | 0.00 | 0.07 | 0.01 | 97 | 1014.6 |
| 20260509183047 | 68 | 154 | 0.0 | 0.0 | 0.00 | 0.07 | 0.01 | 98 | 1014.6 |
| 20260509182100 | 68 | 154 | 0.0 | 0.0 | 0.00 | 0.07 | 0.01 | 99 | 1014.7 |
| 20260509181052 | 68 | 154 | 0.0 | 0.0 | 0.00 | 0.07 | 0.01 | 99 | 1014.7 |
| 20260509180115 | 68 | 154 | 0.0 | 0.0 | 0.00 | 0.07 | 0.01 | 100 | 1014.7 |
| 20260509175038 | 68 | 154 | 0.0 | 0.0 | 0.00 | 0.07 | 0.01 | 100 | 1014.9 |
| 20260509174053 | 68 | 154 | 0.0 | 1.0 | 0.00 | 0.07 | 0.01 | 100 | 1014.6 |
| 20260509173045 | 67 | 155 | 0.0 | 0.0 | 0.00 | 0.07 | 0.01 | 100 | 1014.7 |
| 20260509172100 | 67 | 155 | 0.0 | 0.0 | 0.00 | 0.07 | 0.01 | 100 | 1014.9 |
| 20260509171055 | 67 | 151 | 0.0 | 0.0 | 0.00 | 0.07 | 0.01 | 100 | 1014.7 |
| 20260509170119 | 67 | 151 | 0.0 | 0.0 | 0.00 | 0.07 | 0.01 | 100 | 1014.8 |
| 20260509165048 | 67 | 168 | 0.0 | 0.0 | 0.00 | 0.07 | 0.01 | 100 | 1015.1 |
| 20260509164042 | 67 | 168 | 0.0 | 0.0 | 0.00 | 0.07 | 0.01 | 100 | 1015.1 |
| 20260509163055 | 67 | 168 | 0.0 | 1.0 | 0.01 | 0.07 | 0.01 | 100 | 1015.1 |
| 20260509162050 | 68 | 168 | 0.0 | 1.0 | 0.01 | 0.07 | 0.01 | 100 | 1015.3 |
| 20260509161104 | 68 | 169 | 0.0 | 1.0 | 0.01 | 0.07 | 0.01 | 100 | 1015.3 |
| 20260509160108 | 68 | 170 | 0.0 | 1.0 | 0.01 | 0.07 | 0.01 | 99 | 1015.3 |
| 20260509155051 | 68 | 170 | 0.0 | 1.0 | 0.01 | 0.07 | 0.01 | 98 | 1015.3 |
| 20260509154104 | 69 | 170 | 0.0 | 1.0 | 0.01 | 0.07 | 0.01 | 97 | 1015.3 |
| 20260509153116 | 70 | 360 | 0.0 | 2.0 | 0.00 | 0.06 | 0.00 | 97 | 1015.0 |
| 20260509152051 | 70 | 351 | 0.0 | 1.0 | 0.00 | 0.06 | 0.00 | 98 | 1014.9 |
| 20260509151107 | 70 | 288 | 0.0 | 0.0 | 0.00 | 0.06 | 0.00 | 98 | 1014.5 |
| 20260509150110 | 70 | 288 | 0.0 | 0.0 | 0.00 | 0.06 | 0.00 | 99 | 1014.4 |
| 20260509145052 | 70 | 288 | 0.0 | 0.0 | 0.00 | 0.06 | 0.00 | 99 | 1014.0 |
| 20260509144045 | 69 | 201 | 0.0 | 0.0 | 0.00 | 0.06 | 0.00 | 99 | 1014.0 |
| 20260509143039 | 69 | 201 | 0.0 | 0.0 | 0.00 | 0.06 | 0.00 | 99 | 1014.0 |
| 20260509142052 | 68 | 201 | 0.0 | 0.0 | 0.00 | 0.06 | 0.00 | 100 | 1013.7 |
| 20260509141046 | 68 | 201 | 0.0 | 0.0 | 0.00 | 0.06 | 0.00 | 100 | 1013.7 |
| 20260509140110 | 67 | 200 | 0.0 | 0.0 | 0.00 | 0.06 | 0.00 | 100 | 1013.7 |
| 20260509135050 | 67 | 200 | 0.0 | 0.0 | 0.00 | 0.06 | 0.00 | 100 | 1013.8 |
| 20260509134049 | 67 | 200 | 0.0 | 0.0 | 0.00 | 0.06 | 0.00 | 100 | 1013.8 |
| 20260509133102 | 66 | 200 | 0.0 | 0.0 | 0.00 | 0.06 | 0.00 | 100 | 1014.0 |
| 20260509132055 | 66 | 200 | 0.0 | 0.0 | 0.00 | 0.06 | 0.00 | 100 | 1013.9 |
| 20260509131048 | 66 | 200 | 0.0 | 0.0 | 0.00 | 0.06 | 0.00 | 100 | 1013.9 |
| 20260509130111 | 65 | 200 | 0.0 | 0.0 | 0.00 | 0.06 | 0.00 | 100 | 1013.3 |
| 20260509125113 | 65 | 200 | 0.0 | 0.0 | 0.00 | 0.06 | 0.00 | 100 | 1013.2 |
| 20260509124047 | 65 | 200 | 0.0 | 0.0 | 0.00 | 0.06 | 0.00 | 100 | 1013.3 |
| 20260509123041 | 65 | 16 | 0.0 | 0.0 | 0.00 | 0.06 | 0.00 | 100 | 1013.2 |
| 20260509122054 | 65 | 16 | 0.0 | 0.0 | 0.00 | 0.06 | 0.00 | 100 | 1013.0 |
| 20260509121049 | 65 | 16 | 0.0 | 0.0 | 0.00 | 0.06 | 0.00 | 100 | 1013.0 |
| 20260509120116 | 65 | 16 | 0.0 | 0.0 | 0.00 | 0.06 | 0.00 | 100 | 1013.1 |
| 20260509115102 | 65 | 16 | 0.0 | 0.0 | 0.00 | 0.07 | 0.00 | 100 | 1013.0 |
| 20260509114055 | 64 | 309 | 0.0 | 0.0 | 0.00 | 0.07 | 0.00 | 100 | 1012.6 |
| 20260509113048 | 64 | 309 | 0.0 | 0.0 | 0.00 | 0.07 | 0.00 | 100 | 1012.3 |
| 20260509112041 | 64 | 309 | 0.0 | 0.0 | 0.00 | 0.07 | 0.00 | 100 | 1012.2 |
| 20260509111054 | 64 | 309 | 0.0 | 0.0 | 0.00 | 0.07 | 0.00 | 100 | 1012.2 |
| 20260509110117 | 64 | 306 | 0.0 | 0.0 | 0.00 | 0.07 | 0.00 | 100 | 1012.5 |
| 20260509105059 | 64 | 306 | 0.0 | 0.0 | 0.00 | 0.07 | 0.00 | 100 | 1012.7 |
| 20260509104052 | 64 | 127 | 0.0 | 0.0 | 0.00 | 0.07 | 0.00 | 100 | 1012.4 |
| 20260509103044 | 64 | 127 | 0.0 | 0.0 | 0.00 | 0.07 | 0.00 | 100 | 1012.3 |
| 20260509102042 | 64 | 127 | 0.0 | 0.0 | 0.00 | 0.07 | 0.00 | 100 | 1012.3 |
| 20260509101056 | 64 | 127 | 0.0 | 0.0 | 0.00 | 0.07 | 0.00 | 100 | 1012.0 |
| 20260509100120 | 64 | 127 | 0.0 | 0.0 | 0.00 | 0.07 | 0.00 | 100 | 1011.8 |
| 20260509095102 | 64 | 127 | 0.0 | 0.0 | 0.00 | 0.07 | 0.00 | 100 | 1012.1 |
| 20260509094054 | 64 | 127 | 0.0 | 0.0 | 0.00 | 0.07 | 0.00 | 100 | 1012.1 |
| 20260509093048 | 64 | 127 | 0.0 | 0.0 | 0.00 | 0.07 | 0.00 | 100 | 1012.1 |
| 20260509092043 | 64 | 127 | 0.0 | 0.0 | 0.00 | 0.07 | 0.00 | 100 | 1012.3 |
| 20260509091056 | 64 | 127 | 0.0 | 0.0 | 0.00 | 0.07 | 0.00 | 100 | 1012.0 |
| 20260509090122 | 64 | 127 | 0.0 | 0.0 | 0.00 | 0.07 | 0.00 | 100 | 1011.8 |
| 20260509085105 | 65 | 127 | 0.0 | 0.0 | 0.00 | 0.07 | 0.00 | 100 | 1011.9 |
| 20260509084102 | 65 | 127 | 0.0 | 0.0 | 0.00 | 0.07 | 0.00 | 100 | 1012.1 |
| 20260509083052 | 65 | 127 | 0.0 | 0.0 | 0.00 | 0.07 | 0.00 | 99 | 1011.3 |
| 20260509082045 | 65 | 127 | 0.0 | 0.0 | 0.00 | 0.07 | 0.00 | 99 | 1011.7 |
| 20260509081039 | 65 | 127 | 0.0 | 0.0 | 0.00 | 0.07 | 0.00 | 97 | 1011.6 |
| 20260509080123 | 65 | 127 | 0.0 | 1.0 | 0.00 | 0.07 | 0.00 | 97 | 1011.4 |
| 20260509075046 | 65 | 127 | 0.0 | 0.0 | 0.00 | 0.07 | 0.00 | 97 | 1011.4 |
| 20260509074038 | 65 | 127 | 0.0 | 1.0 | 0.00 | 0.07 | 0.00 | 98 | 1011.3 |
| 20260509073051 | 65 | 127 | 1.0 | 4.0 | 0.00 | 0.07 | 0.00 | 98 | 1011.3 |
| 20260509072044 | 65 | 117 | 0.0 | 5.0 | 0.00 | 0.07 | 0.00 | 99 | 1011.3 |
| 20260509071059 | 64 | 113 | 1.0 | 4.0 | 0.00 | 0.07 | 0.00 | 100 | 1011.1 |
| 20260509070123 | 64 | 114 | 0.0 | 2.0 | 0.00 | 0.07 | 0.00 | 100 | 1011.8 |
| 20260509065048 | 64 | 142 | 0.0 | 4.0 | 0.00 | 0.07 | 0.00 | 100 | 1012.1 |
| 20260509064040 | 64 | 105 | 1.0 | 4.0 | 0.00 | 0.07 | 0.00 | 100 | 1012.1 |